Location: Melbourne
(37.8170°S, 144.9670°E)
Time: 08:54:09
(UTC+11:00)

ISS - All Passes

Search period start: 25 March 2017 00:00
Search period end: 03 April 2017 23:00
Orbit: 399 x 409 km, 51.6° (Epoch: 25 March)

Date Brightness Start Highest point End Pass type
(mag) Time Alt. Az. Time Alt. Az. Time Alt. Az.
25 Mar - 10:06:36 10° NW 10:09:55 84° NE 10:13:17 10° SE daylight
25 Mar - 11:44:36 10° WSW 11:46:47 16° SSW 11:48:58 10° SSE daylight
25 Mar - 15:00:55 10° S 15:02:12 12° SSE 15:03:30 10° SE daylight
25 Mar - 16:36:05 10° SW 16:39:20 48° SE 16:42:32 10° ENE daylight
25 Mar - 18:13:32 10° W 18:15:30 15° NW 18:17:28 10° NNW daylight
26 Mar - 09:14:29 10° NNW 09:17:37 39° NE 09:20:46 10° ESE daylight
26 Mar - 10:51:25 10° W 10:54:11 24° SSW 10:56:58 10° SSE daylight
26 Mar - 15:43:55 10° SSW 15:46:51 28° SSE 15:49:44 10° E daylight
26 Mar - 17:20:22 10° WSW 17:23:18 30° NW 17:26:12 10° NNE daylight
27 Mar - 08:22:54 10° N 08:25:22 20° NE 08:27:52 10° E daylight
27 Mar - 09:58:29 10° WNW 10:01:39 39° SW 10:04:49 10° SE daylight
27 Mar - 11:37:59 10° SSW 11:38:52 11° SSW 11:39:45 10° S daylight
27 Mar - 14:51:52 10° SSW 14:54:16 18° SSE 14:56:38 10° ESE daylight
27 Mar - 16:27:43 10° SW 16:31:01 64° NW 16:34:15 10° NE daylight
28 Mar - 09:05:52 10° NW 09:09:12 76° SW 09:12:33 10° SE daylight
28 Mar - 10:44:13 10° WSW 10:46:09 14° SSW 10:48:04 10° SSE daylight
28 Mar - 13:59:56 10° S 14:01:35 13° SSE 14:03:13 10° SE daylight
28 Mar - 15:35:19 10° SW 15:38:37 61° SE 15:41:52 10° ENE daylight
28 Mar - 17:13:24 10° WNW 17:14:41 12° NW 17:15:57 10° NNW daylight
29 Mar - 08:13:34 10° NNW 08:16:49 51° NE 08:20:04 10° ESE daylight
29 Mar - 09:50:52 10° WSW 09:53:29 21° SSW 09:56:05 10° SSE daylight
29 Mar - 14:43:03 10° SW 14:46:07 33° SSE 14:49:09 10° E daylight
29 Mar - 16:19:45 10° WSW 16:22:28 23° NW 16:25:09 10° N daylight
30 Mar - 07:21:44 10° N 07:24:30 24° NE 07:27:18 10° ESE daylight
30 Mar - 08:57:49 10° W 09:00:53 32° SSW 09:03:57 10° SSE daylight
30 Mar - 13:50:55 10° SSW 13:53:31 21° SSE 13:56:06 10° ESE daylight
30 Mar - 15:26:57 10° WSW 15:30:10 49° NW 15:33:21 10° NNE daylight
31 Mar - 06:30:47 10° NNE 06:32:16 12° NE 06:33:45 10° E visible
31 Mar - 08:05:04 10° WNW 08:08:21 60° SW 08:11:41 10° SE daylight
31 Mar - 09:43:45 10° SW 09:45:24 13° SSW 09:47:03 10° S daylight
31 Mar - 12:58:54 10° SSW 13:00:50 14° SSE 13:02:46 10° ESE daylight
31 Mar - 14:34:26 10° SW 14:37:46 78° SE 14:41:03 10° NE daylight
01 Apr - 07:12:36 10° NW 07:15:55 66° NE 07:19:14 10° SE daylight
01 Apr - 08:50:15 10° WSW 08:52:40 18° SSW 08:55:05 10° SSE daylight
01 Apr - 12:07:08 10° S 12:08:03 11° SSE 12:08:58 10° SSE daylight
01 Apr - 13:42:06 10° SW 13:45:17 39° SE 13:48:24 10° ENE daylight
01 Apr - 15:19:06 10° W 15:21:31 19° NW 15:23:54 10° N daylight
02 Apr - 05:20:33 10° NNW 05:23:32 31° NE 05:26:32 10° ESE visible
02 Apr - 06:57:04 10° W 07:00:00 27° SSW 07:02:57 10° SSE daylight
02 Apr - 11:49:52 10° SSW 11:52:39 24° SSE 11:55:25 10° E daylight
02 Apr - 13:26:05 10° WSW 13:29:12 38° NW 13:32:17 10° NNE daylight
03 Apr - 04:29:09 10° NNE 04:31:14 16° NE 04:33:20 10° E visible
03 Apr - 06:04:10 10° WNW 06:07:25 48° SW 06:10:41 10° SE visible
03 Apr - 07:43:12 10° SW 07:44:33 12° SSW 07:45:52 10° S daylight
03 Apr - 10:57:46 10° SSW 10:59:57 16° SSE 11:02:08 10° ESE daylight
03 Apr - 12:33:27 10° SW 12:36:48 82° NW 12:40:05 10° NE daylight
